AQI (100)

Current Conditions for Foresthill, CA. Sunny, Dry   
Visibility: 10 miles
Space WX Alerts: WARNING:  Geomagnetic K-index of 4 expected ( Latest Alert ) - Issue Time: 2018 Jul 17 0552 UTC

  Summary / Temperature 

Current Temperature
90.7°F
32.6°C
(24/hr Ago)
90.7°F
(Apparent temp)
92.8°F
Uncomfortably Hot
Heat Index
89.0°F 

96.4°F/ 35.8°C
Evident discomfort

 Temp Rate:

 24/hr Difference:

 Avg Running Temp:

 Todays High:

 Todays Low:

 Y-days High:

 Y-days Low:

 Todays HeatIdx:

 Y-days HeatIdx:

 Evapotranspiration:

+1.2°F/hr 

0°F

90.6°F

91.9°F 1:40pm

71.0°F 6:04am

91.0°F 2:40pm

70.5°F 6:45am

91.6°F 2:20pm

89.6°F 2:46pm

0.163 in

115' Above Ground

 Temperature:

 6'AGL VRS 115'AGL:

 Avg Running Temp:

 Humidity:

 Todays High:

 Todays Low:

 Y-days High:

 Y-days Low:

92.0°F 

+1.3°F

91.6°F

30% 

92.0°F 1:26pm

73.0°F 4:46am

92.0°F 4:42pm

73.0°F 5:37am

Temp & Humidity Graphs

  Wind 

Wind Speed

 5.0 mph

Gusting to

 7.0 mph

Wind from W

270°  W

Light breeze

 Avg speed:

 Wind Run:

 Peak Gust:

Calm 

32.0 miles

  19.0 mph 6:17am

  Almanac  

Moon age: 6 days,10 hours,58 minutes,40%

Waxing Crescent
40%
Illuminated
6 days in cycle

 Moonrise:

 Moonset:

 Sunrise:

 Sunset:

 Solar Noon:

12:17pm

---

5:53am

8:27pm

1:10pm

1min 22s less daylight tomorrow 

  Solar Radiation 

(Current Solar)
  914 W/m2 (91%)
(Todays High)
 1042 W/m2@1:38pm
Feels like: 107.6°F in the sun

Rain

 Rain Today:

 Rain Rate (/hr):

 Rain last hour:

 Rain Yesterday:

 This Month:

 Season Total:

53 Days Since Last Rain Day

0.00 in

0.000 in

0.00 in

0.00 in

0.00 in

0.00 in

Updated Time

Updated: 7/18/18  3:02pm

(Updated  sec ago)

Humidity & Barometer

 Humidity:

 Wetbulb:

 Dew Point:

 Barometer:

32% 

70.2°F 

56.8°F 

29.910 inHg 

 Baro Trend:  Falling Slowly 
Northern Calif
Preparedness
Fire 
Level 

    UV Index  

(Current UV)
7.6  High
(Todays High) @ 1:38pm
9.3   Very High

National Weather Service Forecast

This
Afternoon
This Afternoon: Sunny
Sunny
Tonight

Tonight: Haze
Haze
Thursday

Thursday: Sunny
Sunny
Thursday
Night
Thursday Night: Partly Cloudy
Partly Cloudy
Friday

Friday: Mostly Sunny
Mostly Sunny
Friday
Night
Friday Night: Mostly Clear
Mostly Clear
Hi 97 °F Lo 72 °F Hi 93 °F Lo 70 °F Hi 90 °F Lo 71 °F

Foresthill Probe 2 Stats  
Foresthill Probe 2: is located on Thomas Street
at 3000 feet. The main Foresthill Weather site
is located on Melody ln at the 2860 foot elevation

Light Air
94.2°F
34.6°C
Temp Rate:
+0.8°F
2.0 mph
Gusting to
3.0 mph
(Humidity)
28%
Wind from S
190°  S
Updated: 18/07/18 - 14:57:47
 Todays High: 97.0°F 13:21
 Todays Low: 68.8°F 06:43
 Rain Today: 0.00 in
 Season Total: 0.00 in

Foresthill Wx: Monthly,Yearly, Highs and Lows 

Foresthill  
This Weather Data is coming from the main Foresthill
Weather site located on Melody ln at the 2860 foot
elevation
Not Foresthill Probe 2
Weather Data
Month
  High
Month
  Low
Year
High
Year
Low
Temp 91.9°F
7/18/18
60.2°F
7/5/18
91.9°F
7/18/18
21.9°F
2/23/18
Humidity 73%
7/4/18
12%
7/8/18
100%
1/8/18
12%
7/8/18
Heat Index 91.6°F
7/18/18
63.2°F
7/5/18
91.6°F
7/18/18
27.1°F
2/20/18
Wind Chill 91.9°F
7/18/18
58.8°F
7/5/18
91.9°F
7/18/18
9.2°F
2/23/18
Wind Gust 20 mph
7/3/18
0 mph
7/1/18
43 mph
3/1/18
0 mph
1/1/18
Barometer 30.18 in
7/5/18
29.73 in
7/3/18
30.55 in
1/27/18
29.60 in
6/16/18
ET 0.25 in
7/8/18
0.00 in
7/1/18
0.25 in
6/24/18
0.00 in
1/1/18
Dew Point 65.3°F
7/15/18
28.9°F
7/8/18
65.3°F
7/15/18
7.6°F
2/11/18
Pacific Satellite US Radar Satellite Imagery Sacramento,CA.  (click to enlarge)
NWS Weather Forecast - Summary
Updated: Wednesday, July 18, 2018 - 4:08am PDT
Current Interstate Highway Conditions for I-80 & US-50

[I 80: IN THE SAN FRANCISCO BAY AREA - SOLANO CO]
no traffic restrictions are reported for this area.

[I 80: IN THE NORTHERN CALIFORNIA AREA & SIERRA NEVADA]
no traffic restrictions are reported for this area.

[US 50: IN THE SACRAMENTO VALLEY & THE LAKE TAHOE BASIN]
  1-way controlled traffic at various locations from 5. 8 mi east of riverton to 2. 5 mi west of kyburz (EL DORADO CO) from 7:00am to 4:00pm on 7/18/18 - due to maintenance
  1-way controlled traffic at various locations from pioneer trail /in meyers/ to 1. 2 mi east of meyeers (EL DORADO CO) from 6:00am to 5:00pm on 7/18/18 - due to maintenance
NWS Weather Forecast: This Afternoon and Tonight (Updated: Wed, 18-Jul-2018 2:13pm PDT)
This
Afternoon
This Afternoon: Sunny
Sunny

Hi 97 °F
NWS forecast: Sunny, with a high near 97. West wind around 7 mph.
Tonight

Tonight: Haze
Haze

Lo 72 °F
NWS forecast: Haze and areas of smoke between 11pm and 5am. Mostly clear, with a low around 72. North wind 3 to 7 mph.
YR.NO 10 Day Weather forecast
Last update: 07/18/2018 @ 00:33
Next update: 07/18/2018 @ 13:00
Provided by: 22
      Temperature Precipitation Pressure Wind  
Today
07/18/2018
12:00 18:00 97°F   29.92 inHg Light breeze from west-southwest 6 mph
  18:00 00:00 95°F   29.81 inHg Light breeze from west 6 mph
    (Click to enlarge)
meteogram

    Forecast for next 9 days

      Temperature Precip Pressure Wind  
Thursday
07/19/2018
00:00 06:00 72°F   29.87 inHg Light breeze from east-northeast 6 mph
  06:00 12:00 63°F   29.86 inHg Light breeze from east-northeast 6 mph
  12:00 18:00 93°F   29.89 inHg Light breeze from southwest 7 mph
  18:00 00:00 90°F   29.82 inHg Light breeze from southwest 6 mph
      Temperature Precip Pressure Wind  
Friday
07/20/2018
00:00 06:00 70°F   29.88 inHg Light air from east 2 mph
  06:00 12:00 59°F   29.91 inHg Light air from east-northeast 3 mph
  12:00 18:00 90°F   29.91 inHg Light breeze from west-southwest 6 mph
  17:00 23:00 90°F   29.84 inHg Light breeze from west-southwest 7 mph
  23:00 05:00 72°F   29.92 inHg Light air from southeast 3 mph
      Temperature Precip Pressure Wind  
Saturday
07/21/2018
05:00 11:00 64°F   29.92 inHg Light air from east 3 mph
  11:00 17:00 82°F   29.96 inHg Light breeze from southwest 6 mph
  17:00 23:00 88°F   29.91 inHg Light breeze from west-southwest 7 mph
  23:00 05:00 72°F   29.99 inHg Light air from southeast 1 mph
      Temperature Precip Pressure Wind  
Sunday
07/22/2018
05:00 11:00 63°F   29.99 inHg Light breeze from east-northeast 4 mph
  11:00 17:00 88°F   30.00 inHg Light breeze from west-southwest 6 mph
  17:00 23:00 90°F   29.96 inHg Light breeze from southwest 7 mph
  23:00 05:00 72°F   30.04 inHg Light air from southeast 2 mph
      Temperature Precip Pressure Wind  
Monday
07/23/2018
05:00 11:00 64°F   30.00 inHg Light air from east-northeast 3 mph
  11:00 17:00 88°F   30.00 inHg Light breeze from west-southwest 6 mph
  17:00 23:00 90°F   29.94 inHg Light breeze from southwest 7 mph
  23:00 05:00 72°F   29.99 inHg Light air from southeast 2 mph
      Temperature Precip Pressure Wind  
Tuesday
07/24/2018
05:00 11:00 61°F   29.97 inHg Light breeze from east-northeast 4 mph
  11:00 17:00 90°F   29.97 inHg Light breeze from west-southwest 5 mph
  17:00 23:00 91°F   29.91 inHg Light breeze from southwest 6 mph
  23:00 05:00 73°F   29.96 inHg Light air from east-southeast 3 mph
      Temperature Precip Pressure Wind  
Wednesday
07/25/2018
05:00 11:00 63°F   29.93 inHg Light breeze from east-northeast 4 mph
  11:00 17:00 91°F   29.94 inHg Light breeze from west-southwest 6 mph
  17:00 23:00 91°F   29.91 inHg Light breeze from southwest 7 mph
  23:00 05:00 72°F   29.94 inHg Light air from east 2 mph
      Temperature Precip Pressure Wind  
Thursday
07/26/2018
05:00 11:00 61°F   29.92 inHg Light breeze from east-northeast 4 mph
  11:00 17:00 90°F   29.94 inHg Light breeze from southwest 6 mph
  17:00 23:00 91°F   29.90 inHg Light breeze from southwest 7 mph
  23:00 05:00 70°F   29.91 inHg Light breeze from east 4 mph
      Temperature Precip Pressure Wind  
Friday
07/27/2018
05:00 11:00 61°F   29.88 inHg Light breeze from east-northeast 5 mph
  11:00 17:00 90°F   29.91 inHg Light breeze from southwest 6 mph

NOAA Local Storm Report
7 MILES NORTH-NORTHWEST OF BUCKS LAKE   ( More )
DATE
07/15/2018
TIME
4:58 AM
COUNTY
PLUMAS
STATE
CA
GEOGRAPHIC
39.98N 121.24W
SOURCE
LAW ENFORCEMENT
HEAVY RAIN UNDER 0.00 INCH
rock slide covering the west bound lane of highway 70.
How Close Are We To this Month's Temperature Record ?
Updated Wednesday, Jul 18, 2018- 2:55:00 PM

Current Temperature: 90.7°F

July's High: Temperature Record 98.1°F - Set on Wed, Jul 29, 2015 - 2:57:00 PM
We are currently 7.4°F Less than this Month's record High

July's Low: Temperature Record 51.4°F - Set on Sun, Jul 10, 2016 - 7:04:00 AM
We are currently 39.3°F More than this Month's record Low

Weather History For Wednesday, July 18, 2018


On this Day - In Weather History ...
Data courtesy of weatherforyou.com
powered by Cumulus v1.9.3 (1059)
Ambient Weather VWS v14.00
Top Contact Website Map Copyright © 2007 - 2018 Foresthillweather.com Never base important decisions on this or any weather information obtained from the Internet